Tracking 29091 objects as of 17-Jul-2024
HD Live streaming from Space Station
objects crossing your sky now

ATLAS 5 CENTAUR DEB

Track ATLAS 5 CENTAUR DEB now!


NORAD ID: 44682
Int'l Code: 2018-079AU
Perigee: 8,723.8 km
Apogee: 35,223.9 km
Inclination: 12.3 °
Period: 791.5 minutes
Semi major axis: 28344 km
RCS: Unknown
Launch date: October 17, 2018
Source: United States (US)
Launch site: AIR FORCE EASTERN TEST RANGE (AFETR)

Note: This is SATELLITE DEBRIS
Your satellite tracking list
Your tracking list is empty




NASA's NSSDC Master Catalog

Two Line Element Set (TLE):
1 44682U 18079AU  24196.07929337 -.00000141  00000-0  00000-0 0  9998
2 44682  12.3168  95.5672 4674588 194.5656 145.1042  1.81924599 34067
Source of the keplerian elements: AFSPC